KF4CQ Weather Reports


time (UTC)temp
C
wind
direction
speed
KPH
gust
KPH
rain 1hr
cm
rain 24hr
cm
rain mn
cm
humidity
%
barometer
mb
20260510194041 33 165 8.0 11.3 0.00 0.00 0.00 55 1016.2
20260510193536 32 221 8.0 12.9 0.00 0.00 0.00 56 1016.3
20260510193032 32 205 8.0 11.3 0.00 0.00 0.00 58 1016.2
20260510192532 32 143 6.4 8.0 0.00 0.00 0.00 58 1016.3
20260510192028 31 87 3.2 4.8 0.00 0.00 0.00 59 1016.3
20260510191525 31 198 6.4 9.7 0.00 0.00 0.00 62 1016.1
20260510191022 31 2 4.8 4.8 0.00 0.00 0.00 63 1016.5
20260510190519 31 219 11.3 14.5 0.00 0.00 0.00 62 1016.6
20260510190016 31 102 4.8 4.8 0.00 0.00 0.00 64 1016.3
20260510185513 33 177 8.0 11.3 0.00 0.00 0.00 59 1016.5
20260510185010 32 260 8.0 9.7 0.00 0.00 0.00 56 1016.3
20260510184508 32 152 8.0 11.3 0.00 0.00 0.00 55 1016.5
20260510184003 32 357 4.8 4.8 0.00 0.00 0.00 56 1016.2
20260510183458 32 270 4.8 8.0 0.00 0.00 0.00 55 1016.5
20260510182954 33 42 1.6 3.2 0.00 0.00 0.00 52 1016.2
20260510182450 33 278 8.0 8.0 0.00 0.00 0.00 54 1016.1
20260510181945 33 258 9.7 12.9 0.00 0.00 0.00 53 1016.2
20260510181444 33 252 6.4 9.7 0.00 0.00 0.00 54 1016.4
20260510180939 33 14 4.8 4.8 0.00 0.00 0.00 55 1016.2
20260510180437 33 26 4.8 8.0 0.00 0.00 0.00 58 1016.1
20260510175934 33 90 6.4 8.0 0.00 0.00 0.00 58 1016.4
20260510175430 33 146 8.0 12.9 0.00 0.00 0.00 56 1016.4
20260510174925 33 266 4.8 8.0 0.00 0.00 0.00 56 1016.5
20260510174424 33 168 6.4 9.7 0.00 0.00 0.00 56 1016.8
20260510173920 32 192 8.0 9.7 0.00 0.00 0.00 58 1016.8
20260510173415 32 256 8.0 9.7 0.00 0.00 0.00 59 1016.7
20260510172912 32 143 4.8 4.8 0.00 0.00 0.00 61 1016.7
20260510172409 32 197 11.3 14.5 0.00 0.00 0.00 59 1016.8
20260510171904 33 220 8.0 9.7 0.00 0.00 0.00 60 1017.0
20260510171402 32 68 6.4 9.7 0.00 0.00 0.00 60 1017.0
20260510170859 32 212 8.0 9.7 0.00 0.00 0.00 60 1017.1
20260510170355 33 12 3.2 4.8 0.00 0.00 0.00 58 1016.9
20260510165850 32 256 4.8 4.8 0.00 0.00 0.00 63 1017.2
20260510165347 33 202 6.4 12.9 0.00 0.00 0.00 63 1017.2
20260510164844 33 82 1.6 3.2 0.00 0.00 0.00 61 1017.3
20260510164342 32 119 1.6 4.8 0.00 0.00 0.00 65 1017.5
20260510163841 31 95 6.4 8.0 0.00 0.00 0.00 66 1017.7
20260510163338 31 314 4.8 4.8 0.00 0.00 0.00 66 1017.8
20260510162832 31 93 1.6 3.2 0.00 0.00 0.00 67 1017.6
20260510162330 31 182 6.4 8.0 0.00 0.00 0.00 65 1017.9
20260510161825 32 115 3.2 4.8 0.00 0.00 0.00 66 1017.9
20260510161321 31 24 3.2 4.8 0.00 0.00 0.00 66 1017.9
20260510160818 31 250 6.4 9.7 0.00 0.00 0.00 68 1017.8
20260510160315 32 359 4.8 9.7 0.00 0.00 0.00 65 1018.0
20260510155809 32 182 4.8 8.0 0.00 0.00 0.00 68 1017.8
20260510155306 31 229 8.0 12.9 0.00 0.00 0.00 68 1018.0
20260510154802 31 234 4.8 8.0 0.00 0.00 0.00 70 1017.8
20260510154258 30 190 4.8 8.0 0.00 0.00 0.00 72 1017.8
20260510153752 30 57 1.6 1.6 0.00 0.00 0.00 71 1018.0
20260510153248 31 198 8.0 11.3 0.00 0.00 0.00 70 1017.8
20260510152745 31 210 4.8 8.0 0.00 0.00 0.00 70 1017.9
20260510152242 30 154 4.8 4.8 0.00 0.00 0.00 71 1017.8
20260510151738 30 190 6.4 11.3 0.00 0.00 0.00 72 1017.9
20260510151237 30 119 4.8 4.8 0.00 0.00 0.00 73 1017.9
20260510150732 31 0 3.2 4.8 0.00 0.00 0.00 70 1017.8
20260510150228 31 135 4.8 4.8 0.00 0.00 0.00 72 1017.7
20260510145724 30 242 4.8 9.7 0.00 0.00 0.00 73 1017.9
20260510145221 30 203 8.0 11.3 0.00 0.00 0.00 73 1017.7
20260510144717 30 212 4.8 4.8 0.00 0.00 0.00 73 1017.8
20260510144214 30 162 9.7 12.9 0.00 0.00 0.00 74 1017.9
20260510143708 30 8 4.8 8.0 0.00 0.00 0.00 74 1017.7
20260510143205 29 131 4.8 8.0 0.00 0.00 0.00 76 1017.6
20260510142701 30 266 6.4 8.0 0.00 0.00 0.00 74 1017.6
20260510142158 28 129 4.8 4.8 0.00 0.00 0.00 76 1017.5
20260510141655 28 157 4.8 9.7 0.00 0.00 0.00 77 1017.4
20260510141154 28 186 8.0 12.9 0.00 0.00 0.00 77 1017.6
20260510140650 28 90 3.2 4.8 0.00 0.00 0.00 79 1017.5
20260510140149 28 199 8.0 14.5 0.00 0.00 0.00 78 1017.6
20260510135644 28 114 4.8 8.0 0.00 0.00 0.00 78 1017.7
20260510135141 28 193 6.4 8.0 0.00 0.00 0.00 78 1017.4
20260510134638 27 218 8.0 9.7 0.00 0.00 0.00 81 1017.2
20260510134135 28 185 8.0 9.7 0.00 0.00 0.00 80 1017.5
20260510133631 27 120 3.2 3.2 0.00 0.00 0.00 81 1017.4
20260510133126 27 109 6.4 8.0 0.00 0.00 0.00 82 1017.4
20260510132624 27 114 4.8 8.0 0.00 0.00 0.00 84 1017.4
20260510132121 27 89 1.6 1.6 0.00 0.00 0.00 84 1017.4
20260510131618 26 91 3.2 3.2 0.00 0.00 0.00 86 1017.4
20260510131115 26 132 4.8 8.0 0.00 0.00 0.00 87 1017.3
20260510130612 26 71 0.0 1.6 0.00 0.00 0.00 87 1017.4
20260510130110 26 118 4.8 4.8 0.00 0.00 0.00 88 1017.5
20260510125606 25 64 1.6 1.6 0.00 0.00 0.00 88 1017.3
20260510125102 25 120 3.2 4.8 0.00 0.00 0.00 90 1017.2
20260510124558 25 72 1.6 3.2 0.00 0.00 0.00 90 1017.2
20260510124056 25 98 3.2 3.2 0.00 0.00 0.00 91 1017.3
20260510123551 25 75 1.6 3.2 0.00 0.00 0.00 92 1017.2
20260510123047 24 104 1.6 3.2 0.00 0.00 0.00 93 1017.2
20260510122543 24 77 1.6 1.6 0.00 0.00 0.00 93 1017.0
20260510122039 23 37 1.6 1.6 0.00 0.00 0.00 94 1016.9
20260510121537 23 123 4.8 4.8 0.00 0.00 0.00 94 1017.1
20260510121034 23 102 1.6 1.6 0.00 0.00 0.00 95 1017.0
20260510120531 23 82 1.6 1.6 0.00 0.00 0.00 95 1016.9
20260510120027 23 78 0.0 0.0 0.00 0.00 0.00 95 1016.7
20260510115524 23 68 0.0 0.0 0.00 0.00 0.00 96 1016.8
20260510115020 23 77 0.0 0.0 0.00 0.00 0.00 97 1016.7
20260510114516 22 75 0.0 0.0 0.00 0.00 0.00 98 1016.5
20260510114013 22 85 0.0 0.0 0.00 0.00 0.00 98 1016.4
20260510113508 22 83 0.0 0.0 0.00 0.00 0.00 98 1016.3
20260510113006 22 83 1.6 1.6 0.00 0.00 0.00 99 1016.2
20260510112502 22 75 0.0 0.0 0.00 0.00 0.00 99 1016.1
20260510111959 22 79 0.0 0.0 0.00 0.00 0.00 99 1016.0
20260510111455 22 74 0.0 0.0 0.00 0.00 0.00 99 1015.8
20260510110951 22 80 0.0 0.0 0.00 0.00 0.00 99 1015.7
20260510110448 22 70 0.0 0.0 0.00 0.00 0.00 99 1015.6
20260510105944 22 70 0.0 0.0 0.00 0.00 0.00 99 1015.5
20260510105439 22 73 0.0 0.0 0.00 0.00 0.00 99 1015.6
20260510104934 22 73 0.0 0.0 0.00 0.00 0.00 99 1015.5
20260510104431 22 73 0.0 0.0 0.00 0.00 0.00 99 1015.3
20260510103928 22 71 0.0 0.0 0.00 0.00 0.00 99 1015.5
20260510103426 22 69 0.0 0.0 0.00 0.00 0.00 99 1015.5
20260510102920 22 100 0.0 1.6 0.00 0.00 0.00 99 1015.5
20260510102416 22 77 0.0 0.0 0.00 0.00 0.00 99 1015.1
20260510101914 22 78 0.0 0.0 0.00 0.00 0.00 99 1015.0
20260510101412 22 78 0.0 0.0 0.00 0.00 0.00 98 1015.1
20260510100908 22 75 0.0 0.0 0.00 0.00 0.00 98 1014.9
20260510100400 22 77 0.0 0.0 0.00 0.00 0.00 98 1014.8
20260510095855 22 83 0.0 0.0 0.00 0.00 0.00 98 1014.8
20260510095345 22 77 0.0 0.0 0.00 0.00 0.00 98 1014.8
20260510094845 22 76 0.0 0.0 0.00 0.00 0.00 98 1014.7
20260510094340 22 78 0.0 0.0 0.00 0.00 0.00 98 1014.8
20260510093837 22 71 0.0 0.0 0.00 0.00 0.00 98 1014.8
20260510093332 22 80 0.0 0.0 0.00 0.00 0.00 98 1014.7
20260510092829 22 72 0.0 0.0 0.00 0.00 0.00 98 1014.7
20260510092325 22 116 1.6 1.6 0.00 0.00 0.00 98 1014.7
20260510091821 23 100 1.6 1.6 0.00 0.00 0.00 98 1014.6
20260510091318 23 113 4.8 8.0 0.00 0.00 0.00 98 1014.6
20260510090814 23 190 1.6 3.2 0.00 0.00 0.00 98 1014.4
20260510090311 23 87 1.6 1.6 0.00 0.00 0.00 98 1014.7
20260510085807 23 84 1.6 1.6 0.00 0.00 0.00 98 1014.7
20260510085301 23 74 1.6 1.6 0.00 0.00 0.00 98 1014.4
20260510084757 23 90 1.6 3.2 0.00 0.00 0.00 98 1014.4
20260510084254 23 73 0.0 1.6 0.00 0.00 0.00 98 1014.3
20260510083751 23 69 0.0 1.6 0.00 0.00 0.00 98 1014.0
20260510083248 23 65 3.2 4.8 0.00 0.00 0.00 98 1014.1
20260510082744 23 72 0.0 0.0 0.00 0.00 0.00 98 1014.2
20260510082240 23 190 4.8 4.8 0.00 0.00 0.00 98 1014.4
20260510081739 23 69 0.0 0.0 0.00 0.00 0.00 98 1014.1
20260510081236 23 89 1.6 1.6 0.00 0.00 0.00 98 1014.2
20260510080731 23 114 4.8 4.8 0.00 0.00 0.00 98 1014.2
20260510080227 23 74 1.6 1.6 0.00 0.00 0.00 98 1014.3
20260510075724 23 112 3.2 3.2 0.00 0.00 0.00 98 1014.3
20260510075221 23 75 1.6 4.8 0.00 0.00 0.00 98 1014.2
20260510074719 22 82 0.0 0.0 0.00 0.00 0.00 98 1014.3
20260510074215 22 80 0.0 1.6 0.00 0.00 0.00 98 1014.2
20260510073711 22 83 4.8 4.8 0.00 0.00 0.00 98 1014.6
20260510073207 22 80 1.6 1.6 0.00 0.00 0.00 98 1014.4
20260510072703 22 85 0.0 3.2 0.00 0.00 0.00 98 1014.5
20260510072200 22 76 0.0 0.0 0.00 0.00 0.00 98 1014.5
20260510071656 22 89 0.0 0.0 0.00 0.00 0.00 98 1014.6
20260510071153 22 70 1.6 1.6 0.00 0.00 0.00 99 1014.6
20260510070651 22 84 0.0 0.0 0.00 0.00 0.00 99 1014.5
20260510070148 22 74 0.0 0.0 0.00 0.00 0.00 99 1014.8
20260510065643 22 75 1.6 1.6 0.00 0.00 0.00 99 1014.7
20260510065139 22 86 1.6 1.6 0.00 0.00 0.00 99 1014.7
20260510064636 22 80 1.6 3.2 0.00 0.00 0.00 99 1014.6
20260510064133 22 72 0.0 0.0 0.00 0.00 0.00 99 1014.7
20260510063630 22 72 0.0 0.0 0.00 0.00 0.00 99 1015.0
20260510063127 22 73 0.0 0.0 0.00 0.00 0.00 99 1015.1
20260510062623 22 85 3.2 3.2 0.00 0.00 0.00 99 1015.3
20260510062119 22 91 0.0 0.0 0.00 0.00 0.00 99 1015.3
20260510061615 22 78 0.0 0.0 0.00 0.00 0.00 99 1015.4
20260510061112 22 69 0.0 0.0 0.00 0.00 0.00 99 1015.4
20260510060608 22 65 0.0 0.0 0.00 0.00 0.00 99 1015.4
20260510060105 22 60 0.0 0.0 0.00 0.00 0.00 99 1015.2
20260510055601 22 71 0.0 0.0 0.00 0.00 0.00 99 1015.4
20260510055059 22 68 0.0 0.0 0.00 0.00 0.00 98 1015.6
20260510054555 22 91 0.0 1.6 0.00 0.00 0.00 98 1015.5
20260510054050 22 69 0.0 0.0 0.00 0.00 0.00 98 1015.8
20260510053549 22 67 0.0 0.0 0.00 0.00 0.00 98 1015.7
20260510053047 22 67 0.0 0.0 0.00 0.00 0.00 98 1015.8
20260510052543 22 67 0.0 0.0 0.00 0.00 0.00 97 1015.6
20260510052039 22 70 0.0 0.0 0.00 0.00 0.00 97 1015.5
20260510051535 22 70 0.0 0.0 0.00 0.00 0.00 97 1015.9
20260510051031 22 73 0.0 0.0 0.00 0.00 0.00 97 1016.0
20260510050529 23 76 0.0 0.0 0.00 0.00 0.00 96 1016.2
20260510050026 23 71 0.0 0.0 0.00 0.00 0.00 96 1016.0
20260510045523 23 70 0.0 0.0 0.00 0.00 0.00 96 1016.0
20260510045019 23 76 0.0 0.0 0.00 0.00 0.00 95 1016.1
20260510044516 23 90 0.0 0.0 0.00 0.00 0.00 95 1016.3
20260510044013 23 73 0.0 0.0 0.00 0.00 0.00 94 1016.2
20260510043508 23 76 0.0 0.0 0.00 0.00 0.00 93 1016.1
20260510043004 23 67 0.0 0.0 0.00 0.00 0.00 93 1016.3
20260510042458 23 67 0.0 0.0 0.00 0.00 0.00 93 1016.4
20260510041953 23 68 0.0 0.0 0.00 0.00 0.00 93 1016.2
20260510041450 22 74 0.0 0.0 0.00 0.00 0.00 92 1016.3
20260510040948 22 73 0.0 0.0 0.00 0.00 0.00 92 1016.3
20260510040444 22 72 0.0 0.0 0.00 0.00 0.00 92 1016.4
20260510035940 22 73 0.0 0.0 0.00 0.00 0.00 92 1016.3
20260510035437 22 65 0.0 0.0 0.00 0.00 0.00 91 1016.4
20260510034937 22 64 0.0 0.0 0.00 0.00 0.00 92 1016.3
20260510034436 22 68 0.0 0.0 0.00 0.00 0.00 93 1016.5
20260510033932 22 74 0.0 0.0 0.00 0.00 0.00 93 1016.5
20260510033428 22 70 0.0 0.0 0.00 0.00 0.00 93 1016.3
20260510032925 22 70 0.0 0.0 0.00 0.00 0.00 92 1016.5
20260510032422 22 70 0.0 0.0 0.00 0.00 0.00 92 1016.2
20260510031917 22 74 0.0 0.0 0.00 0.00 0.00 92 1016.0
20260510031412 22 74 0.0 0.0 0.00 0.00 0.00 92 1016.0
20260510030907 22 74 0.0 0.0 0.00 0.00 0.00 92 1016.3
20260510030403 22 74 0.0 0.0 0.00 0.00 0.00 92 1016.4
20260510025901 22 74 0.0 0.0 0.00 0.00 0.00 92 1016.2
20260510025359 22 74 0.0 0.0 0.00 0.00 0.00 91 1016.2
20260510024856 22 74 0.0 0.0 0.00 0.00 0.00 91 1016.0
20260510024352 22 74 0.0 0.0 0.00 0.00 0.00 91 1015.9
20260510023848 22 74 0.0 0.0 0.00 0.00 0.00 90 1016.0
20260510023344 22 74 0.0 0.0 0.00 0.00 0.00 90 1015.8
20260510022842 22 75 0.0 0.0 0.00 0.00 0.00 90 1015.8
20260510022341 22 75 0.0 0.0 0.00 0.00 0.00 90 1015.9
20260510021840 22 75 0.0 0.0 0.00 0.00 0.00 90 1015.9
20260510021339 22 75 0.0 0.0 0.00 0.00 0.00 89 1015.7
20260510020835 23 72 0.0 0.0 0.00 0.00 0.00 89 1015.8
20260510020335 23 71 0.0 0.0 0.00 0.00 0.00 88 1015.5
20260510015831 23 71 0.0 0.0 0.00 0.00 0.00 88 1015.8
20260510015327 23 71 0.0 0.0 0.00 0.00 0.00 88 1015.8
20260510014822 23 71 0.0 0.0 0.00 0.00 0.00 87 1015.7
20260510014320 23 69 0.0 0.0 0.00 0.00 0.00 87 1015.7
20260510013815 23 69 0.0 0.0 0.00 0.00 0.00 87 1015.8
20260510013312 23 75 0.0 0.0 0.00 0.00 0.00 86 1015.5
20260510012806 23 63 0.0 1.6 0.00 0.00 0.00 86 1015.4
20260510012300 23 62 1.6 3.2 0.00 0.00 0.00 86 1015.5
20260510011755 24 61 0.0 0.0 0.00 0.00 0.00 86 1015.5
20260510011251 24 61 1.6 3.2 0.00 0.00 0.00 86 1015.5
20260510010748 24 48 3.2 3.2 0.00 0.00 0.00 85 1015.2
20260510010244 24 58 1.6 1.6 0.00 0.00 0.00 85 1015.2
20260510005742 24 61 0.0 0.0 0.00 0.00 0.00 85 1015.4
20260510005238 24 60 1.6 1.6 0.00 0.00 0.00 85 1015.1
20260510004736 24 58 0.0 0.0 0.00 0.00 0.00 85 1015.1
20260510004233 24 68 4.8 8.0 0.00 0.00 0.00 85 1014.9
20260510003731 24 54 1.6 1.6 0.00 0.00 0.00 85 1014.9
20260510003227 24 58 0.0 1.6 0.00 0.00 0.00 86 1014.7
20260510002725 24 59 0.0 1.6 0.00 0.00 0.00 85 1014.9
20260510002223 24 36 1.6 3.2 0.00 0.00 0.00 85 1014.7
20260510001720 24 50 1.6 3.2 0.00 0.00 0.00 84 1014.7
20260510001219 25 53 3.2 4.8 0.00 0.00 0.00 84 1014.6
20260510000714 25 59 1.6 1.6 0.00 0.00 0.00 84 1014.7
20260510000212 25 36 1.6 3.2 0.00 0.00 0.00 85 1014.6
20260509235708 25 29 9.7 12.9 0.00 0.00 0.00 85 1014.6
20260509235204 25 62 0.0 1.6 0.00 0.00 0.00 86 1014.4
20260509234701 25 51 1.6 3.2 0.00 0.00 0.00 87 1014.4
20260509234158 25 57 0.0 0.0 0.00 0.00 0.00 87 1014.0
20260509233656 26 61 3.2 3.2 0.00 0.00 0.00 88 1014.2
20260509233153 26 23 8.0 9.7 0.00 0.00 0.00 88 1013.9
20260509232649 26 29 9.7 20.9 0.00 0.00 0.00 88 1014.0
20260509232146 26 6 6.4 9.7 0.00 0.00 0.00 87 1014.0
20260509231643 26 24 9.7 12.9 0.00 0.00 0.00 86 1014.2
20260509231140 27 30 8.0 11.3 0.00 0.00 0.00 83 1013.9
20260509230637 27 41 6.4 11.3 0.00 0.00 0.00 82 1013.7
20260509230134 27 58 0.0 1.6 0.00 0.00 0.00 82 1013.8
20260509225630 27 43 4.8 4.8 0.00 0.00 0.00 81 1013.8
20260509225125 27 47 1.6 1.6 0.00 0.00 0.00 79 1013.6
20260509224621 28 45 1.6 3.2 0.00 0.00 0.00 76 1013.5
20260509224118 28 57 1.6 3.2 0.00 0.00 0.00 74 1013.5
20260509223615 28 33 6.4 11.3 0.00 0.00 0.00 74 1013.6
20260509223113 28 50 3.2 4.8 0.00 0.00 0.00 74 1013.3
20260509222608 28 64 1.6 1.6 0.00 0.00 0.00 73 1013.3
20260509222105 28 52 3.2 3.2 0.00 0.00 0.00 74 1013.3
20260509221600 28 54 3.2 4.8 0.00 0.00 0.00 73 1013.3
20260509221056 29 54 1.6 3.2 0.00 0.00 0.00 72 1013.1
20260509220552 30 45 8.0 11.3 0.00 0.00 0.00 70 1013.3
20260509220049 30 61 0.0 1.6 0.00 0.00 0.00 66 1013.0
20260509215544 31 60 0.0 1.6 0.00 0.00 0.00 61 1013.0
20260509215042 31 62 1.6 1.6 0.00 0.00 0.00 60 1013.0
20260509214539 31 199 3.2 8.0 0.00 0.00 0.00 60 1012.9
20260509214036 31 45 3.2 4.8 0.00 0.00 0.00 59 1012.7
20260509213532 31 59 1.6 3.2 0.00 0.00 0.00 59 1012.7
20260509213029 32 64 1.6 1.6 0.00 0.00 0.00 57 1012.7
20260509212526 32 39 3.2 3.2 0.00 0.00 0.00 57 1012.4
20260509212023 32 39 4.8 4.8 0.00 0.00 0.00 57 1012.6
20260509211518 32 264 6.4 8.0 0.00 0.00 0.00 58 1012.6
20260509211016 32 306 6.4 8.0 0.00 0.00 0.00 58 1012.5
20260509210512 32 28 1.6 1.6 0.00 0.00 0.00 58 1012.6
20260509210009 31 33 3.2 3.2 0.00 0.00 0.00 60 1012.6
20260509205503 31 194 8.0 9.7 0.00 0.00 0.00 60 1012.6
20260509204958 31 23 3.2 3.2 0.00 0.00 0.00 59 1012.7
20260509204455 31 56 1.6 3.2 0.00 0.00 0.00 60 1012.6
20260509203951 31 251 6.4 8.0 0.00 0.00 0.00 60 1012.5
20260509203447 31 288 6.4 8.0 0.00 0.00 0.00 62 1012.7
20260509202945 31 357 3.2 4.8 0.00 0.00 0.00 61 1012.7
20260509202441 31 3 1.6 3.2 0.00 0.00 0.00 63 1012.5
20260509201936 30 58 0.0 1.6 0.00 0.00 0.00 65 1012.6
20260509201431 30 34 3.2 3.2 0.00 0.00 0.00 65 1012.7
20260509200929 30 18 3.2 3.2 0.00 0.00 0.00 65 1012.8
20260509200429 30 89 1.6 3.2 0.00 0.00 0.00 65 1012.8
20260509195926 30 75 1.6 1.6 0.00 0.00 0.00 66 1012.8
20260509195422 29 53 3.2 3.2 0.00 0.00 0.00 66 1012.8
20260509194921 29 62 1.6 1.6 0.00 0.00 0.00 68 1012.9
20260509194417 29 117 4.8 4.8 0.00 0.00 0.00 67 1012.9